Alexandria, MN

10:52 AM CST on December 07, 2019 (GMT -0600)
Chandler

Weather History for KAXN - October, 2019

Change the Weather History Date:

Friday, October 11, 2019

  Actual Average Record
Temperature  
Mean Temperature 32 °F -  
Max Temperature 34 °F 57 °F 88 °F (2015)
Min Temperature 30 °F 37 °F 24 °F (2006)
Degree Days  
Heating Degree Days 33    
Moisture  
Dew Point 29 °F    
Average Humidity 90    
Maximum Humidity 96    
Minimum Humidity 85    
Precipitation  
Precipitation 0.07 in - - ()
Sea Level Pressure  
Sea Level Pressure 29.65 in    
Wind  
Wind Speed 17 mph ()    
Max Wind Speed 29 mph    
Max Gust Speed 48 mph    
Visibility 2.7 miles    
Events Fog , Snow    
Averages and records for this station are not official NWS values.
T = Trace of Precipitation, MM = Missing Value Source: Averaged Metar Reports

Daily Weather History Graph

Daily Weather History Graph

Search for Another Location

Airport or City:

Astronomy

Oct. 11, 2019 Rise Set
Actual Time 7:32 AM CDT 6:43 PM CDT
Civil Twilight 7:02 AM CDT 7:13 PM CDT
Nautical Twilight 6:28 AM CDT 7:47 PM CDT
Astronomical Twilight 5:53 AM CDT 8:22 PM CDT
Moon 6:22 PM CDT (10/11) 5:02 AM CDT (10/11)
Length of Visible Light 12h 10m
Length of Day
11h 10m
Waxing Gibbous, 96% of the Moon is Illuminated
Oct 11
Waxing Gibbous
Oct 13
Full
Oct 21
Last Quarter
Oct 27
New
Nov 4
First Quarter

Hourly Weather History & Observations

Time (CDT) Temp. Windchill Dew Point Humidity Pressure Visibility Wind Dir Wind Speed Gust Speed Precip Events Conditions
12:03 AM 34.0 °F 23.4 °F 33.1 °F 96% 29.73 in 10.0 mi West 17.3 mph 23.0 mph N/A   Overcast
12:42 AM 33.1 °F 21.5 °F 32.0 °F 96% 29.72 in 6.0 mi WNW 19.6 mph 31.1 mph 0.01 in   Overcast
12:53 AM 33.1 °F 24.4 °F 32.0 °F 96% 29.76 in 10.0 mi WNW 11.5 mph - 0.01 in   Overcast
1:53 AM 33.1 °F 23.4 °F 32.0 °F 96% 29.74 in 8.0 mi West 13.8 mph 23.0 mph N/A   Overcast
2:53 AM 33.1 °F 22.6 °F 30.9 °F 92% 29.73 in 5.0 mi West 16.1 mph 26.5 mph N/A   Overcast
3:51 AM 32.0 °F 20.8 °F 30.2 °F 93% 29.68 in 8.0 mi West 17.3 mph - N/A   Overcast
3:53 AM 32.0 °F 21.2 °F 30.0 °F 92% 29.73 in 7.0 mi West 16.1 mph - N/A   Overcast
4:21 AM 32.0 °F 22.5 °F 30.0 °F 92% 29.67 in 5.0 mi West 12.7 mph - 0.00 in Snow Light Snow
4:53 AM 32.0 °F 21.6 °F 30.0 °F 92% 29.73 in 6.0 mi West 15.0 mph 25.3 mph 0.00 in   Overcast
5:40 AM 32.0 °F 22.1 °F 30.0 °F 92% 29.67 in 7.0 mi West 13.8 mph - N/A   Overcast
5:53 AM 32.0 °F 21.6 °F 30.0 °F 92% 29.71 in 8.0 mi West 15.0 mph 26.5 mph N/A   Overcast
6:19 AM 32.0 °F 21.2 °F 30.0 °F 92% 29.67 in 7.0 mi West 16.1 mph 26.5 mph N/A   Overcast
6:27 AM 32.0 °F 20.8 °F 30.0 °F 92% 29.67 in 7.0 mi West 17.3 mph - N/A   Overcast
6:37 AM 32.0 °F 22.1 °F 30.0 °F 92% 29.67 in 8.0 mi West 13.8 mph 23.0 mph N/A   Overcast
6:45 AM 32.0 °F 22.1 °F 30.0 °F 92% 29.67 in 6.0 mi West 13.8 mph 23.0 mph N/A   Overcast
6:53 AM 32.0 °F 22.1 °F 28.9 °F 88% 29.72 in 4.0 mi West 13.8 mph 25.3 mph 0.00 in Snow Light Snow
7:12 AM 32.0 °F 21.2 °F 28.9 °F 88% 29.68 in 3.0 mi WSW 16.1 mph 24.2 mph 0.00 in Snow Light Snow
7:53 AM 32.0 °F 21.2 °F 28.9 °F 88% 29.71 in 5.0 mi WSW 16.1 mph - 0.00 in   Overcast
7:58 AM 32.0 °F 20.8 °F 30.0 °F 92% 29.67 in 2.5 mi WSW 17.3 mph 24.2 mph 0.00 in Snow Light Snow
8:15 AM 32.0 °F 21.6 °F 28.9 °F 88% 29.66 in 4.0 mi WSW 15.0 mph 24.2 mph 0.00 in   Overcast
8:32 AM 32.0 °F 20.8 °F 30.0 °F 92% 29.66 in 2.5 mi West 17.3 mph 21.9 mph 0.00 in   Overcast
8:53 AM 32.0 °F 22.5 °F 30.0 °F 92% 29.70 in 2.5 mi WSW 12.7 mph - 0.00 in   Overcast
8:58 AM 32.0 °F 21.2 °F 30.0 °F 92% 29.65 in 3.0 mi WSW 16.1 mph 23.0 mph N/A   Overcast
9:13 AM 32.0 °F 21.2 °F 30.0 °F 92% 29.65 in 2.5 mi WSW 16.1 mph - 0.00 in   Overcast
9:23 AM 32.0 °F 20.8 °F 30.0 °F 92% 29.64 in 1.8 mi WSW 17.3 mph 25.3 mph 0.00 in   Overcast
9:27 AM 32.0 °F 21.6 °F 30.0 °F 92% 29.64 in 2.0 mi WSW 15.0 mph - 0.00 in Snow Light Snow
9:34 AM 32.0 °F 22.5 °F 28.9 °F 88% 29.64 in 1.8 mi WSW 12.7 mph 28.8 mph 0.00 in Snow Light Snow
9:41 AM 32.0 °F 22.5 °F 30.0 °F 92% 29.64 in 1.8 mi WSW 12.7 mph 23.0 mph 0.00 in Snow Light Snow
9:47 AM 32.0 °F 20.8 °F 30.2 °F 93% 29.64 in 2.0 mi WSW 17.3 mph 27.6 mph 0.00 in Snow Light Snow
9:53 AM 32.0 °F 20.8 °F 30.0 °F 92% 29.69 in 2.5 mi WSW 17.3 mph 27.6 mph 0.00 in   Overcast
10:00 AM 32.0 °F 20.5 °F 30.0 °F 92% 29.64 in 2.5 mi WSW 18.4 mph 28.8 mph N/A   Overcast
10:08 AM 32.0 °F 22.1 °F 30.0 °F 92% 29.64 in 2.5 mi WSW 13.8 mph 28.8 mph 0.00 in   Overcast
10:13 AM 32.0 °F 22.1 °F 30.9 °F 96% 29.64 in 1.8 mi WSW 13.8 mph - 0.00 in Snow Light Snow
10:28 AM 32.0 °F 20.8 °F 30.0 °F 92% 29.64 in 3.0 mi WSW 17.3 mph 25.3 mph 0.00 in   Overcast
10:39 AM 32.0 °F 20.8 °F 30.0 °F 92% 29.64 in 1.8 mi WSW 17.3 mph 24.2 mph 0.00 in Snow Light Snow
10:44 AM 32.0 °F 21.6 °F 30.0 °F 92% 29.63 in 1.0 mi WSW 15.0 mph - 0.01 in Snow Light Snow
10:53 AM 32.0 °F 21.6 °F 30.0 °F 92% 29.68 in 1.0 mi WSW 15.0 mph 27.6 mph 0.01 in Snow Light Snow
11:33 AM 32.0 °F 20.8 °F 30.0 °F 92% 29.63 in 1.5 mi WSW 17.3 mph 31.1 mph 0.00 in Snow Light Snow
11:46 AM 32.0 °F 20.1 °F 30.0 °F 92% 29.63 in 2.0 mi WSW 19.6 mph 29.9 mph 0.00 in Snow Light Snow
11:53 AM 33.1 °F 22.2 °F 30.0 °F 89% 29.67 in 1.8 mi WSW 17.3 mph 29.9 mph 0.00 in Snow Light Snow
11:58 AM 32.0 °F 20.1 °F 30.0 °F 92% 29.62 in 1.2 mi WSW 19.6 mph 29.9 mph 0.00 in Snow Light Snow
12:04 PM 32.0 °F 19.8 °F 30.0 °F 92% 29.62 in 0.8 mi WSW 20.7 mph 29.9 mph 0.00 in Snow Light Snow
12:12 PM 32.0 °F 20.5 °F 30.0 °F 92% 29.62 in 0.5 mi WSW 18.4 mph 27.6 mph 0.00 in Fog , Snow Light Snow
12:23 PM 32.0 °F 22.1 °F 30.0 °F 92% 29.62 in 0.8 mi WSW 13.8 mph 32.2 mph 0.00 in Snow Light Snow
12:25 PM 33.1 °F 21.5 °F 30.9 °F 92% 29.62 in 1.0 mi West 19.6 mph 32.2 mph 0.00 in Snow Light Snow
12:32 PM 33.1 °F 20.9 °F 30.0 °F 89% 29.62 in 2.0 mi West 21.9 mph 31.1 mph 0.01 in Snow Light Snow
12:40 PM 33.1 °F 20.9 °F 30.0 °F 89% 29.62 in 2.5 mi West 21.9 mph 32.2 mph 0.01 in Snow Light Snow
12:53 PM 33.1 °F 21.2 °F 30.0 °F 89% 29.68 in 2.0 mi WSW 20.7 mph 28.8 mph 0.01 in Snow Light Snow
1:04 PM 32.0 °F 19.2 °F 30.0 °F 92% 29.62 in 1.2 mi WSW 23.0 mph 33.4 mph 0.00 in Snow Light Snow
1:22 PM 32.0 °F 19.5 °F 30.0 °F 92% 29.62 in 1.0 mi WSW 21.9 mph 35.7 mph 0.00 in Snow Light Snow
1:29 PM 32.0 °F 19.2 °F 30.0 °F 92% 29.62 in 1.2 mi WSW 23.0 mph 35.7 mph 0.00 in Snow Light Snow
1:46 PM 32.0 °F 19.8 °F 30.0 °F 92% 29.62 in 1.0 mi WSW 20.7 mph 33.4 mph 0.00 in Snow Light Snow
1:53 PM 32.0 °F 20.5 °F 30.0 °F 92% 29.67 in 0.8 mi West 18.4 mph 28.8 mph 0.00 in Snow Light Snow
2:03 PM 32.0 °F 19.5 °F 28.9 °F 88% 29.62 in 1.0 mi West 21.9 mph 33.4 mph 0.00 in Snow Light Snow
2:15 PM 32.0 °F 19.2 °F 28.9 °F 88% 29.62 in 1.5 mi West 23.0 mph 39.1 mph 0.00 in Snow Light Snow
2:35 PM 32.0 °F 18.9 °F 28.9 °F 88% 29.62 in 1.2 mi West 24.2 mph 33.4 mph 0.00 in Snow Light Snow
2:46 PM 32.0 °F 20.5 °F 30.0 °F 92% 29.61 in 2.0 mi West 18.4 mph 31.1 mph 0.00 in Snow Light Snow
2:53 PM 32.0 °F 21.2 °F 30.0 °F 92% 29.66 in 2.0 mi West 16.1 mph 31.1 mph 0.00 in Snow Light Snow
3:05 PM 32.0 °F 19.2 °F 28.9 °F 88% 29.62 in 3.0 mi West 23.0 mph 38.0 mph 0.00 in Snow Light Snow
3:11 PM 32.0 °F 18.4 °F 28.9 °F 88% 29.62 in 1.8 mi West 26.5 mph 41.4 mph 0.01 in Snow Light Snow
3:19 PM 32.0 °F 20.5 °F 28.9 °F 88% 29.62 in 0.8 mi West 18.4 mph 41.4 mph 0.01 in Snow Light Snow
3:23 PM 32.0 °F 20.1 °F 28.9 °F 88% 29.62 in 0.8 mi West 19.6 mph 31.1 mph 0.01 in Snow Light Snow
3:49 PM 32.0 °F 20.8 °F 28.4 °F 87% 29.62 in 1.0 mi West 17.3 mph 29.9 mph 0.01 in Snow Light Snow
3:53 PM 32.0 °F 20.5 °F 28.9 °F 88% 29.68 in 1.0 mi WSW 18.4 mph 29.9 mph 0.01 in Snow Light Snow
4:09 PM 32.0 °F 20.1 °F 28.9 °F 88% 29.62 in 1.0 mi WSW 19.6 mph 34.5 mph 0.00 in Snow Light Snow
4:19 PM 32.0 °F 20.5 °F 28.9 °F 88% 29.62 in 1.2 mi West 18.4 mph 33.4 mph 0.01 in Snow Light Snow
4:32 PM 30.9 °F 18.7 °F 28.9 °F 92% 29.62 in 0.8 mi West 19.6 mph 32.2 mph 0.01 in Snow Light Snow
4:38 PM 30.9 °F 17.8 °F 28.0 °F 89% 29.63 in 1.0 mi WSW 23.0 mph 32.2 mph 0.01 in Snow Light Snow
4:53 PM 30.9 °F 19.8 °F 28.0 °F 89% 29.68 in 1.2 mi West 16.1 mph 34.5 mph 0.01 in Snow Light Snow
5:00 PM 30.9 °F 17.8 °F 28.0 °F 89% 29.63 in 2.0 mi WSW 23.0 mph 33.4 mph 0.00 in Snow Light Snow
5:11 PM 30.9 °F 18.7 °F 28.0 °F 89% 29.63 in 1.2 mi West 19.6 mph 28.8 mph 0.01 in Snow Light Snow
5:23 PM 30.9 °F 18.1 °F 28.0 °F 89% 29.63 in 0.8 mi West 21.9 mph 36.8 mph 0.01 in Snow Light Snow
5:33 PM 30.9 °F 19.4 °F 28.0 °F 89% 29.63 in 1.0 mi WSW 17.3 mph 31.1 mph 0.01 in Snow Light Snow
5:53 PM 30.9 °F 17.8 °F 28.0 °F 89% 29.68 in 1.0 mi West 23.0 mph 34.5 mph 0.01 in Snow Light Snow
6:20 PM 30.9 °F 17.5 °F 28.0 °F 89% 29.63 in 1.5 mi West 24.2 mph 38.0 mph 0.00 in Snow Light Snow
6:29 PM 30.9 °F 16.7 °F 28.0 °F 89% 29.63 in 1.2 mi West 27.6 mph 39.1 mph 0.01 in Snow Light Snow
6:35 PM 30.9 °F 17.2 °F 27.0 °F 85% 29.63 in 1.8 mi West 25.3 mph 39.1 mph 0.01 in Snow Light Snow
6:42 PM 30.9 °F 16.9 °F 27.0 °F 85% 29.62 in 1.8 mi West 26.5 mph 38.0 mph 0.01 in Snow Light Snow
6:51 PM 30.2 °F 16.5 °F 26.6 °F 86% 29.62 in 2.5 mi West 24.2 mph 35.7 mph 0.01 in Snow Light Snow
6:53 PM 30.9 °F 17.2 °F 27.0 °F 85% 29.68 in 2.5 mi West 25.3 mph 35.7 mph 0.01 in Snow Light Snow
7:21 PM 30.9 °F 18.7 °F 28.0 °F 89% 29.62 in 1.5 mi West 19.6 mph 32.2 mph 0.00 in Snow Light Snow
7:36 PM 30.9 °F 18.4 °F 27.0 °F 85% 29.62 in 3.0 mi West 20.7 mph 43.7 mph 0.00 in Snow Light Snow
7:53 PM 30.9 °F 17.5 °F 27.0 °F 85% 29.68 in 2.0 mi West 24.2 mph 35.7 mph 0.00 in Snow Light Snow
8:11 PM 30.9 °F 18.1 °F 27.0 °F 85% 29.62 in 1.5 mi West 21.9 mph 40.3 mph 0.00 in Snow Light Snow
8:24 PM 30.9 °F 18.1 °F 28.0 °F 89% 29.62 in 3.0 mi West 21.9 mph 34.5 mph 0.00 in Snow Light Snow
8:38 PM 30.9 °F 18.1 °F 28.0 °F 89% 29.62 in 1.8 mi West 21.9 mph 33.4 mph 0.00 in Snow Light Snow
8:53 PM 30.9 °F 18.4 °F 28.0 °F 89% 29.67 in 1.8 mi West 20.7 mph 34.5 mph 0.00 in Snow Light Snow
9:09 PM 30.9 °F 17.8 °F 28.0 °F 89% 29.61 in 1.2 mi West 23.0 mph 43.7 mph 0.00 in Snow Light Snow
9:24 PM 30.9 °F 17.5 °F 27.0 °F 85% 29.61 in 4.0 mi West 24.2 mph 41.4 mph 0.00 in Snow Light Snow
9:53 PM 30.9 °F 16.4 °F 28.0 °F 89% 29.66 in 1.8 mi West 28.8 mph 41.4 mph 0.00 in Snow Light Snow
10:44 PM 30.9 °F 17.8 °F 28.0 °F 89% 29.59 in 1.2 mi West 23.0 mph 33.4 mph 0.00 in Snow Light Snow
10:53 PM 30.9 °F 17.8 °F 28.0 °F 89% 29.64 in 1.5 mi West 23.0 mph 36.8 mph 0.00 in Snow Light Snow
10:59 PM 30.9 °F 18.7 °F 28.0 °F 89% 29.58 in 3.0 mi West 19.6 mph 36.8 mph 0.00 in Snow Light Snow
11:16 PM 30.9 °F 17.8 °F 28.0 °F 89% 29.58 in 1.8 mi West 23.0 mph 34.5 mph 0.00 in Snow Light Snow
11:29 PM 30.9 °F 16.7 °F 28.0 °F 89% 29.57 in 2.0 mi West 27.6 mph 41.4 mph 0.00 in Snow Light Snow
11:53 PM 30.9 °F 16.9 °F 28.0 °F 89% 29.61 in 2.5 mi West 26.5 mph 48.3 mph 0.00 in Snow Light Snow